This is the latest recevied weather packets stored in our database for station/object SQ5DCP-1. If no packets are shown the sender has not sent any weather packets the latest 1 day(s).
| Time | Temp. | Humidity | Pressure | Rain* | Wind** | Luminosity | Snow |
|---|---|---|---|---|---|---|---|
| 1778010923 | 18.89° C | 42% | 1006.9 hPa | 0 mm | 0.89 m/s, 174° | - | - |
| 1778010620 | 19.44° C | 42% | 1006.8 hPa | 0 mm | 0 m/s | - | - |
| 1778010318 | 19.44° C | 41% | 1006.7 hPa | 0 mm | 0 m/s | - | - |
| 1778010017 | 19.44° C | 41% | 1006.7 hPa | 0 mm | 0.45 m/s, 177° | - | - |
| 1778009735 | 19.44° C | 40% | 1006.8 hPa | 0 mm | 0.45 m/s, 177° | - | - |
| 1778009433 | 20° C | 40% | 1006.7 hPa | 0 mm | 0.45 m/s, 178° | - | - |
| 1778009131 | 20° C | 39% | 1006.8 hPa | 0 mm | 0.45 m/s, 177° | - | - |
| 1778008829 | 20.56° C | 39% | 1006.8 hPa | 0 mm | 0.45 m/s, 174° | - | - |
| 1778008527 | 20.56° C | 38% | 1006.8 hPa | 0 mm | 0.89 m/s, 173° | - | - |
| 1778008226 | 20.56° C | 38% | 1006.9 hPa | 0 mm | 0.89 m/s, 173° | - | - |
| 1778007923 | 21.11° C | 38% | 1006.8 hPa | 0 mm | 0.45 m/s, 177° | - | - |
| 1778007622 | 21.11° C | 38% | 1006.8 hPa | 0 mm | 0.45 m/s, 180° | - | - |
| 1778007320 | 21.11° C | 37% | 1006.8 hPa | 0 mm | 0 m/s | - | - |
| 1778007018 | 21.67° C | 37% | 1006.8 hPa | 0 mm | 0 m/s | - | - |
| 1778006716 | 21.67° C | 37% | 1006.8 hPa | 0 mm | 0 m/s | - | - |
| 1778006434 | 21.67° C | 37% | 1006.7 hPa | 0 mm | 0 m/s | - | - |
| 1778006133 | 22.22° C | 36% | 1006.8 hPa | 0 mm | 0 m/s | - | - |
| 1778005831 | 22.22° C | 35% | 1006.8 hPa | 0 mm | 0 m/s | - | - |
| 1778004322 | 23.33° C | 33% | 1006.7 hPa | 0 mm | 0.45 m/s, 166° | - | - |
| 1778004021 | 23.33° C | 33% | 1006.8 hPa | 0 mm | 0.45 m/s, 173° | - | - |
| 1778003717 | 23.33° C | 32% | 1006.9 hPa | 0 mm | 0.45 m/s, 176° | - | - |
| 1778003436 | 23.89° C | 32% | 1006.8 hPa | 0 mm | 0.45 m/s, 177° | - | - |
| 1778003134 | 23.89° C | 32% | 1006.7 hPa | 0 mm | 0.45 m/s, 161° | - | - |
| 1778002832 | 23.89° C | 32% | 1006.7 hPa | 0 mm | 0.45 m/s, 167° | - | - |
| 1778002530 | 23.89° C | 32% | 1006.7 hPa | 0 mm | 0.45 m/s, 160° | - | - |
* Rain latest hour (hover to see other rain measurements)
** Current wind speed in m/s (hover to see current wind gust speed)